Location: Beloeil
(45.5670°N, 73.2000°W)
Time: 11:13:40
(UTC-05:00)

Daily predictions for brighter satellites

Satellite Brightness Start Highest point End
(mag) Time Altitude Azimuth Time Altitude Azimuth Time Altitude Azimuth
Meteor 2-2 Rocket 4.3 17:07:39 10° N 17:13:18 85° ENE 17:18:58 10° S
Cosmos 1674 3.0 17:10:30 10° SSW 17:14:19 72° W 17:18:11 10° N
Lacrosse 5 3.3 17:10:22 10° WNW 17:14:35 26° NNW 17:18:49 10° NE
Cosmos 1844 4.3 17:11:24 10° NNW 17:17:08 68° WSW 17:22:53 10° SSE
Cosmos 2279 Rocket 4.3 17:12:16 10° N 17:18:09 42° ENE 17:24:02 10° SE
Cosmos 2228 Rocket 3.6 17:16:47 10° NNW 17:21:12 67° W 17:25:36 10° S
Meteor 1-27 4.4 17:21:58 10° N 17:27:39 53° ENE 17:33:20 10° SSE
Cosmos 1328 Rocket 4.3 17:24:15 10° NNW 17:28:38 59° W 17:32:59 10° S
DNEPR-1 R/B 4.4 17:22:16 10° SSW 17:29:07 85° SE 17:34:41 10° NE
Cosmos 2237 Rocket 2.3 17:24:19 10° S 17:29:51 62° ESE 17:35:27 10° NNE
CZ-2C R/B 2.9 17:25:45 10° S 17:30:39 65° WSW 17:35:26 10° NNW
Cosmos 1743 Rocket 3.9 17:26:16 10° SSW 17:30:43 72° W 17:35:13 10° N
Cosmos 2369 Rocket 4.0 17:28:42 10° NNE 17:30:59 12° NE 17:33:16 10° ENE
CENTAUR R/B 3.2 17:25:03 10° WSW 17:31:08 54° NW 17:38:05 10° NE
Cosmos 1151 Rocket 2.9 17:28:29 10° N 17:32:48 79° E 17:37:05 10° SSE
Transit 2A Rocket 4.5 17:29:18 10° NNW 17:33:41 87° ENE 17:37:59 10° SSE
Cosmos 1300 2.6 17:30:27 10° N 17:34:18 78° E 17:38:08 10° SSE
Cosmos 332 Rocket 4.4 17:31:12 10° SW 17:35:58 60° WNW 17:40:49 10° NNE
COSMOS 2428 3.8 17:32:05 10° SW 17:37:32 44° WNW 17:43:01 10° NNE
SL-16 R/B 3.0 17:32:45 10° SSE 17:37:41 32° ESE 17:42:38 10° NE
Cosmos 1125 Rocket 3.9 17:33:29 10° NNW 17:38:41 69° WSW 17:43:49 10° S
Lacrosse 4 Rocket 2.7 17:36:27 10° N 17:39:32 20° NE 17:42:02 13° E
Cosmos 1515 Rocket 4.3 17:35:59 10° NNW 17:40:24 59° W 17:44:46 10° S
Cosmos 44 3.4 17:36:24 10° SSW 17:41:40 85° ESE 17:46:41 10° NE
COSMOS 2441 4.4 17:37:01 10° SSE 17:41:53 88° WSW 17:46:45 10° NNW
SL-14 R/B 3.2 17:40:59 10° S 17:44:54 75° E 17:48:55 10° NNE
Cosmos 1340 Rocket 3.1 17:42:29 10° SSE 17:46:14 44° E 17:49:59 10° NNE
Cosmos 2297 3.7 17:41:46 10° NNW 17:47:28 64° ENE 17:53:08 10° SE
Cosmos 1484 Rocket 2.8 17:43:37 10° SSE 17:47:34 83° ENE 17:51:36 10° N
ALOS 3.5 17:44:36 10° ESE 17:47:57 20° ENE 17:51:18 10° NNE
SKYMED 2 3.7 17:44:01 10° NNE 17:48:17 52° E 17:52:30 10° S
Cosmos 1805 Rocket 4.1 17:45:11 10° SSE 17:49:18 38° E 17:53:27 10° NNE
Meteor 2-10 3.9 17:45:11 10° N 17:50:19 78° E 17:55:33 10° SSE
Thor Agena Rocket 3.7 17:46:24 10° NNE 17:51:40 78° WNW 17:56:50 10° SSW
Cosmos 2084 4.1 17:50:38 10° WSW 17:54:20 43° NW 17:57:54 10° NNE
Cosmos 1184 Rocket 4.3 17:51:56 10° SE 17:54:19 19° E 17:54:19 19° E
Cosmos 1500 Rocket 4.4 17:52:00 10° SSW 17:56:14 53° WNW 18:00:33 10° N
Iridium 4 Rocket 4.3 17:54:36 10° SE 17:57:46 20° E 17:58:22 19° ENE
Meteor 1-28 Rocket 3.4 17:55:33 10° NNE 17:59:08 45° E 18:02:43 10° S
Cosmos 1869 4.4 17:55:54 10° NNE 17:59:11 23° ENE 18:02:27 10° SE
Cosmos 2058 2.8 17:55:07 10° S 17:59:13 81° E 18:03:20 10° N
Cosmos 1538 Rocket 4.5 17:57:06 10° S 18:02:02 41° ESE 18:06:34 12° NE
Cosmos 1461 3.2 17:58:16 10° SSW 18:02:16 46° ESE 18:04:38 21° NE
NOSS 0 Rocket 4.3 17:56:56 10° SW 18:03:08 69° WNW 18:09:22 10° NNE
Cosmos 371 Rocket 4.4 17:59:50 10° SW 18:04:25 44° WNW 18:09:03 10° N
Sich 1 3.6 18:00:33 10° SSE 18:04:36 36° E 18:08:41 10° NNE
FENGYUN 3A 4.2 18:05:27 10° SE 18:10:13 34° ENE 18:15:00 10° N
METEOR-M 4.1 18:07:40 10° SSE 18:12:56 63° ENE 18:18:15 10° N
Cosmos 1633 Rocket 3.5 18:09:21 10° SSE 18:13:27 39° E 18:16:41 15° NNE
Aureole 1 Rocket 4.3 18:13:04 10° SSE 18:18:12 40° E 18:24:41 10° NNE
Cosmos 1980 4.4 18:12:54 10° SW 18:18:28 54° WNW 18:24:03 10° NNE
Abrixas 2.3 18:15:54 10° WSW 18:18:51 90° SW 18:19:25 54° ENE
Cosmos 1356 Rocket 3.3 18:16:11 10° S 18:20:05 58° E 18:23:02 17° NNE
ATLAS 5 CENTAUR R/B 3.7 18:18:39 10° NNW 18:22:41 19° NNE 18:23:47 18° NE
Lacrosse 5 rocket 3.5 18:21:49 10° WNW 18:24:56 24° SW 18:28:11 10° S
NOAA 12 4.0 18:20:10 10° SSE 18:25:24 85° ENE 18:30:43 10° NNW
FREGAT/IRIS 2.5 18:25:07 10° SSE 18:28:09 70° ENE 18:31:13 10° N
Aureole 2 Rocket 3.8 18:25:09 10° SW 18:28:50 46° WNW 18:32:47 10° N
BREEZE-M DEB (TANK) 2.2 18:30:55 10° SW 18:33:02 57° S 18:33:02 57° S
Cosmos 1626 2.1 18:31:42 10° S 18:35:26 85° W 18:38:10 18° N
Cosmos 1707 Rocket 3.8 18:31:33 10° NNW 18:35:53 69° W 18:40:10 10° S
COSMO-SKYMED 1 3.5 18:32:05 10° N 18:36:18 49° WNW 18:40:29 10° SW
Cosmos 2219 Rocket 3.9 18:32:40 10° WSW 18:37:30 29° NW 18:42:21 10° N
FengYun 1-2 T 4.2 18:33:45 10° SSE 18:39:12 62° ENE 18:44:39 10° N
Cosmos 773 Rocket 4.0 18:34:58 10° S 18:40:01 58° ESE 18:42:09 33° NE
Cosmos 2333 Rocket 3.7 18:35:06 10° WSW 18:40:11 34° NW 18:45:18 10° NNE
BREEZE M DEB (TANK) 3.2 18:38:41 10° W 18:40:41 23° SW 18:40:57 23° SSW
Cosmos 304 Rocket 4.2 18:35:57 10° SSW 18:40:42 62° WNW 18:44:51 14° NNE
Cosmos 1943 Rocket 3.9 18:37:10 10° N 18:39:28 16° NNE 18:39:28 16° NNE
Cosmos 1603 4.1 18:37:07 10° S 18:42:16 39° ESE 18:42:35 38° E
ATLAS 3B R/B 4.2 18:37:31 10° NNW 18:42:19 19° N 18:44:15 17° NNE
USA 215 3.2 18:37:34 16° SE 18:43:04 86° SW 18:49:40 10° NW
Orbus 7S? 4.3 18:43:38 10° NW 18:47:43 81° NE 18:53:53 20° SE
Cosmos 1666 Rocket 3.7 18:44:15 10° SSW 18:48:36 73° W 18:52:53 11° N
CZ-4C R/B 3.9 18:44:28 10° NNW 18:49:43 24° NNE 18:50:36 23° NE
Cosmos 1455 2.8 18:46:30 10° NNW 18:50:15 57° W 18:53:59 10° S
Resurs 01 Rocket 1.5 18:49:20 28° SSE 18:51:35 69° ENE 18:56:01 10° N
Resurs 1-3 4.0 18:55:11 46° NNE 18:55:11 46° NNE 18:58:29 10° N
SJ-6B 3.6 18:50:34 10° S 18:54:35 56° W 18:58:41 10° NNW
Lacrosse 5 3.3 18:54:52 10° NW 18:58:58 24° N 18:59:05 24° NNE
Cosmos 1627 Rocket 4.5 18:54:16 10° SSE 19:00:15 54° E 19:02:02 40° NE
Cosmos 2237 Rocket 4.1 19:09:47 10° WSW 19:14:22 25° NW 19:19:00 10° N
Cosmos 2369 Rocket 2.7 19:10:50 10° NNW 19:15:08 44° NNE 19:15:08 44° NNE
Lacrosse 4 Rocket 2.2 19:14:35 10° NW 19:18:28 48° WSW 19:18:28 48° WSW
SL-16 R/B 3.2 19:16:16 10° SW 19:21:38 43° WNW 19:24:59 22° N
CENTAUR R/B 4.4 19:18:26 10° WNW 19:23:33 22° NNW 19:26:53 17° NNE
ALOS 3.0 19:20:28 10° S 19:25:01 52° W 19:29:36 10° NNW
Spot 2 Rocket 4.0 19:22:05 10° S 19:27:02 58° WSW 19:32:02 10° NNW
USA 229 DEB 3.6 19:21:22 10° SW 19:28:15 89° WNW 19:29:44 59° NE
USA 229 3.6 19:21:28 10° SW 19:28:20 89° WNW 19:29:46 60° NE
Cosmos 2026 Rocket 3.8 19:23:14 10° S 19:29:04 76° SE 19:29:04 76° SE
Iridium 4 Rocket 4.4 19:33:25 10° SSW 19:37:32 37° W 19:38:17 34° WNW
ATLAS 5 CENTAUR R/B 3.8 20:02:45 10° NNW 20:05:22 27° NNW 20:05:22 27° NNW
Cosmos 1943 Rocket 4.4 20:19:52 10° NNW 20:21:00 17° NNW 20:21:00 17° NNW
ATLAS 3B R/B 4.4 20:28:41 10° NNW 20:31:30 23° NNW 20:31:30 23° NNW
CZ-4C R/B 4.2 20:32:42 10° NW 20:35:48 29° NNW 20:35:48 29° NNW
